This is the latest recevied weather packets stored in our database for station/object OE3MHU-13. If no packets are shown the sender has not sent any weather packets the latest 1 day(s).
| Time | Temp. | Humidity | Pressure | Rain* | Wind** | Luminosity | Snow |
|---|---|---|---|---|---|---|---|
| 1778054595 | 23.33° C | 51% | 1009.8 hPa | 0 mm | - | - | - |
| 1778053695 | 23.33° C | 52% | 1009.9 hPa | 0 mm | - | - | - |
| 1778053396 | 23.33° C | 49% | 1009.9 hPa | 0 mm | - | - | - |
| 1778052495 | 23.33° C | 52% | 1009.9 hPa | 0 mm | - | - | - |
| 1778052191 | 22.78° C | 54% | 1009.9 hPa | 0 mm | - | - | - |
| 1778051891 | 23.33° C | 53% | 1010 hPa | 0 mm | - | - | - |
| 1778050991 | 22.22° C | 56% | 1010.2 hPa | 0 mm | - | - | - |
| 1778050691 | 21.67° C | 57% | 1010.2 hPa | 0 mm | - | - | - |
| 1778050391 | 21.67° C | 58% | 1010.3 hPa | 0 mm | - | - | - |
| 1778050093 | 20.56° C | 59% | 1010.3 hPa | 0 mm | - | - | - |
| 1778049187 | 19.44° C | 60% | 1010.3 hPa | 0 mm | - | - | - |
| 1778047987 | 18.33° C | 62% | 1010.3 hPa | 0 mm | - | - | - |
| 1778047687 | 18.33° C | 63% | 1010.1 hPa | 0 mm | - | - | - |
| 1778047090 | 18.33° C | 64% | 1010.1 hPa | 0 mm | - | - | - |
| 1778046787 | 18.33° C | 63% | 1010.2 hPa | 0 mm | - | - | - |
| 1778046488 | 18.33° C | 64% | 1010.4 hPa | 0 mm | - | - | - |
| 1778045886 | 18.33° C | 65% | 1010.3 hPa | 0 mm | - | - | - |
| 1778045583 | 18.33° C | 65% | 1010.3 hPa | 0 mm | - | - | - |
| 1778044679 | 17.78° C | 66% | 1010.2 hPa | 0 mm | - | - | - |
| 1778044079 | 17.78° C | 68% | 1010.2 hPa | 0 mm | - | - | - |
| 1778043778 | 17.22° C | 69% | 1010.1 hPa | 0 mm | - | - | - |
| 1778043475 | 16.67° C | 71% | 1010.2 hPa | 0 mm | - | - | - |
| 1778043172 | 16.67° C | 72% | 1010.1 hPa | 0 mm | - | - | - |
| 1778042872 | 16.67° C | 72% | 1010.1 hPa | 0 mm | - | - | - |
| 1778042572 | 16.67° C | 72% | 1010.1 hPa | 0 mm | - | - | - |
* Rain latest hour (hover to see other rain measurements)
** Current wind speed in m/s (hover to see current wind gust speed)